Weather History for Marathon, FL

Change the Weather History Date:

Tuesday, December 11, 2012

  Actual Average Record
Temperature  
Mean Temperature 83 °F 72 °F  
Max Temperature 86 °F 77 °F 86 °F (1997)
Min Temperature 79 °F 68 °F 49 °F (2014)
Degree Days  
Heating Degree Days 0 1  
Month to date heating degree days 0 4  
Since 1 July heating degree days 1 5  
Cooling Degree Days 18 8  
Month to date cooling degree days 131 95  
Year to date cooling degree days 5116 4859  
Growing Degree Days 31 (Base 50)    
Moisture  
Dew Point 73 °F    
Average Humidity 78    
Maximum Humidity 85    
Minimum Humidity 70    
Precipitation  
Precipitation 0.00 in 0.06 in 1.50 in (2013)
Month to date precipitation 0.29 0.72  
Year to date precipitation 44.37 44.87  
Snow  
Snow 0.00 in - - ()
Month to date snowfall 0.0  
Since 1 July snowfall 0.0  
Snow Depth 0.00 in    
Sea Level Pressure  
Sea Level Pressure 29.99 in    
Wind  
Wind Speed 6 mph (SSE)    
Max Wind Speed 12 mph    
Max Gust Speed 18 mph    
Visibility 9 miles    
Events      
T = Trace of Precipitation, MM = Missing Value Source: NWS Daily Summary

Daily Weather History Graph

Daily Weather History Graph

Search for Another Location

Airport:

Trip Planner

Search our weather history database for the weather conditions in past years. The results will help you decide how hot, cold, wet, or windy it might be!

Date:

Astronomy

Dec. 11, 2012 Rise Set
Actual Time 6:58 AM EST 5:36 PM EST
Civil Twilight 6:33 AM EST 6:01 PM EST
Nautical Twilight 6:05 AM EST 6:29 PM EST
Astronomical Twilight 5:37 AM EST 6:57 PM EST
Moon 4:57 AM EST (12/11) 4:10 PM EST (12/11)
Length of Visible Light 11h 27m
Length of Day
10h 37m
Waning Crescent, 4% of the Moon is Illuminated
Dec 11
Waning Crescent
Dec 13
New
Dec 20
First Quarter
Dec 28
Full
Jan 4
Last Quarter

Hourly Weather History & Observations

Time (EST) Temp. Heat Index Dew Point Humidity Pressure Visibility Wind Dir Wind Speed Gust Speed Precip Events Conditions
12:41 AM 78.8 °F - 73.4 °F 83% 29.96 in 9.0 mi SSE 9.2 mph - N/A   Scattered Clouds
12:53 AM 79.0 °F - 73.0 °F 82% 29.96 in 9.0 mi SSE 8.1 mph 18.4 mph N/A   Partly Cloudy
1:51 AM 78.8 °F - 73.4 °F 83% 29.95 in 8.0 mi SSE 10.4 mph - N/A   Partly Cloudy
1:53 AM 79.0 °F - 73.0 °F 82% 29.95 in 8.0 mi SSE 9.2 mph - N/A   Clear
2:53 AM 79.0 °F - 73.9 °F 84% 29.94 in 8.0 mi SSE 6.9 mph - N/A   Partly Cloudy
3:53 AM 79.0 °F - 73.0 °F 82% 29.94 in 9.0 mi South 9.2 mph - N/A   Clear
4:53 AM 79.0 °F - 73.0 °F 82% 29.94 in 9.0 mi South 9.2 mph - N/A   Clear
5:53 AM 79.0 °F - 73.0 °F 82% 29.94 in 8.0 mi South 8.1 mph - N/A   Clear
6:53 AM 79.0 °F - 73.0 °F 82% 29.97 in 8.0 mi South 6.9 mph - N/A   Partly Cloudy
7:53 AM 79.0 °F - 73.9 °F 84% 29.99 in 7.0 mi Variable 3.5 mph - N/A   Scattered Clouds
8:13 AM 80.6 °F 85.4 °F 73.4 °F 79% 30.00 in 8.0 mi Variable 3.5 mph - N/A   Mostly Cloudy
8:34 AM 80.6 °F 85.4 °F 73.4 °F 79% 30.01 in 8.0 mi Calm Calm - N/A   Scattered Clouds
8:53 AM 81.0 °F 86.2 °F 73.9 °F 79% 30.02 in 8.0 mi Calm Calm - N/A   Partly Cloudy
9:53 AM 82.9 °F 89.4 °F 73.9 °F 74% 30.03 in 9.0 mi South 5.8 mph - N/A   Partly Cloudy
10:53 AM 82.0 °F 87.9 °F 73.9 °F 76% 30.03 in 8.0 mi Calm Calm - N/A   Scattered Clouds
11:00 AM 84.2 °F 92.3 °F 75.2 °F 74% 30.03 in 5.0 mi Calm Calm - N/A   Haze
11:19 AM 84.2 °F 90.9 °F 73.4 °F 70% 30.03 in 8.0 mi SSE 6.9 mph - N/A   Mostly Cloudy
11:53 AM 84.9 °F 92.1 °F 73.9 °F 69% 30.02 in 9.0 mi SSE 6.9 mph - N/A   Clear
12:53 PM 84.9 °F 92.1 °F 73.9 °F 69% 29.99 in 9.0 mi Variable 6.9 mph - N/A   Partly Cloudy
1:53 PM 84.9 °F 91.4 °F 73.0 °F 67% 29.97 in 9.0 mi SSE 9.2 mph - N/A   Clear
2:53 PM 82.9 °F 88.8 °F 73.0 °F 72% 29.96 in 10.0 mi SSE 6.9 mph - N/A   Partly Cloudy
3:53 PM 82.0 °F 87.4 °F 73.0 °F 74% 29.95 in 9.0 mi SSE 5.8 mph - N/A   Scattered Clouds
4:53 PM 80.1 °F 84.2 °F 73.0 °F 79% 29.95 in 8.0 mi SSE 5.8 mph - N/A   Clear
5:53 PM 80.1 °F 84.2 °F 73.0 °F 79% 29.96 in 8.0 mi SE 5.8 mph - N/A   Partly Cloudy
6:53 PM 79.0 °F - 72.0 °F 79% 29.96 in 10.0 mi SE 5.8 mph - N/A   Clear
7:53 PM 79.0 °F - 72.0 °F 79% 29.98 in 10.0 mi SE 4.6 mph - N/A   Clear
8:53 PM 79.0 °F - 72.0 °F 79% 30.02 in 10.0 mi SE 4.6 mph - N/A   Scattered Clouds
9:53 PM 79.0 °F - 72.0 °F 79% 30.03 in 10.0 mi ESE 5.8 mph - N/A   Scattered Clouds
10:53 PM 79.0 °F - 72.0 °F 79% 30.04 in 10.0 mi SE 4.6 mph - N/A   Scattered Clouds
11:53 PM 79.0 °F - 72.0 °F 79% 30.05 in 10.0 mi SE 5.8 mph - N/A   Partly Cloudy